Home > Weather > Ho Chi Minh > Past weeks

Flag for Vietnam Past Weather in Ho Chi Minh, Vietnam — Yesterday and Last 2 Weeks

Now
77 °F

Partly cloudy.


Feels Like: 78 °F
Forecast: 78 / 90 °F
Wind: 2 mph from Southeast

Location: Ho Chi Minh

Current Time: Jul 28, 2016 at 6:14:49 AM

Latest Report: Jul 28, 2016 at 5:30 AM


Visibility: 5 mi

Pressure: 29.74 "Hg

Humidity: 94%

Dew Point: 75 °F

Location of Ho Chi MinhLocation

Past Weather in Ho Chi Minh — Graph

°F

Ho Chi Minh Temperature Yesterday

Maximum temperature yesterday: 90 °F (at 1:00 PM)
Minimum temperature yesterday: 75 °F (at 12:00 AM)
Average temperature yesterday: 80 °F

High & Low Weather Summary for the Past Weeks

 TemperatureHumidityPressure
High97 °F (Jul 14, 3:00 PM)100% (Jul 14, 7:00 PM)29.86 "Hg (Jul 14, 7:00 PM)
Low75 °F (Jul 18, 7:00 PM)44% (Jul 14, 3:00 PM)29.65 "Hg (Jul 13, 2:00 PM)
Average83 °F80%29.77 "Hg
* Reported Jul 13 5:00 AM — Jul 28 5:00 AM, Ho Chi Minh, Weather by CustomWeather, © 2016

Note: Actual official high and low records may vary slightly from our data, if they occured in-between our weather recording intervals... More about our weather records

Advertising

Ho Chi Minh Weather History for the Previous 24 Hours

Scroll right to see more
 ConditionsComfort  
Time TempWeatherWind HumidityBarometerVisibility
5:00 AM
Thu, Jul 28
77 °FPartly cloudy.2 mph100%29.74 "Hg5 mi
4:30 AM77 °FPartly cloudy.2 mph94%29.74 "Hg5 mi
4:00 AM77 °FPartly cloudy.2 mph94%29.74 "Hg5 mi
3:30 AM77 °FPartly cloudy.2 mph94%29.74 "Hg5 mi
3:00 AM77 °FPartly cloudy.3 mph94%29.74 "Hg5 mi
2:30 AM77 °FPartly cloudy.1 mph100%29.74 "Hg5 mi
2:00 AM77 °FPartly cloudy.No wind94%29.77 "Hg5 mi
1:30 AM77 °FPartly cloudy.2 mph94%29.77 "Hg5 mi
1:00 AM77 °FPartly cloudy.2 mph94%29.77 "Hg5 mi
12:00 AM77 °FLight rain. Partly cloudy.1 mph100%29.80 "Hg5 mi
11:30 PM
Wed, Jul 27
77 °FLight rain. Partly cloudy.3 mph100%29.80 "Hg5 mi
11:00 PM77 °FLight rain. Partly cloudy.5 mph100%29.83 "Hg5 mi
10:30 PM77 °FLight rain. Partly cloudy.3 mph100%29.83 "Hg5 mi
10:00 PM77 °FLight rain. Partly cloudy.5 mph94%29.83 "Hg5 mi
9:30 PM77 °FThunderstorms. Partly cloudy.6 mph100%29.80 "Hg4 mi
9:00 PM77 °FThunderstorms. Partly cloudy.6 mph94%29.83 "Hg4 mi
8:30 PM77 °FSprinkles. Partly cloudy.7 mph94%29.80 "Hg4 mi
8:00 PM79 °FLight rain. Partly cloudy.6 mph84%29.80 "Hg5 mi
7:30 PM77 °FLight rain. Partly cloudy.3 mph89%29.77 "HgN/A
7:00 PM77 °FPartly cloudy.2 mph94%29.77 "HgN/A
6:30 PM77 °FPartly cloudy.1 mph89%29.74 "Hg5 mi
6:00 PM75 °FLight rain. Broken clouds.2 mph94%29.74 "Hg5 mi
5:30 PM75 °FBroken clouds.6 mph94%29.74 "Hg5 mi
5:00 PM75 °FStrong thunderstorms. Broken clouds.14 mph100%29.74 "Hg1 mi
4:30 PM84 °FPartly sunny.10 mph74%29.68 "HgN/A
4:00 PM90 °FPartly sunny.7 mph59%29.68 "HgN/A
3:30 PM88 °FPartly sunny.7 mph62%29.68 "HgN/A
3:00 PM90 °FScattered clouds.8 mph59%29.68 "HgN/A
2:30 PM90 °FPartly sunny.8 mph59%29.71 "HgN/A
2:00 PM90 °FPartly sunny.8 mph59%29.71 "HgN/A
1:30 PM88 °FPartly sunny.9 mph66%29.71 "HgN/A
1:00 PM90 °FPartly sunny.8 mph59%29.74 "HgN/A
12:30 PM88 °FPartly sunny.6 mph62%29.74 "HgN/A
12:00 PM88 °FPartly sunny.8 mph66%29.77 "HgN/A
11:30 AM86 °FPartly sunny.9 mph66%29.77 "HgN/A
11:00 AM86 °FPartly sunny.12 mph66%29.77 "HgN/A
10:30 AM86 °FPartly sunny.12 mph70%29.77 "HgN/A
10:00 AM86 °FScattered clouds.10 mph70%29.80 "HgN/A
9:30 AM82 °FScattered clouds.10 mph79%29.80 "HgN/A
9:00 AM82 °FScattered clouds.12 mph79%29.80 "HgN/A
8:30 AM82 °FScattered clouds.10 mph79%29.80 "HgN/A
8:00 AM81 °FScattered clouds.9 mph84%29.80 "HgN/A
7:30 AM79 °FBroken clouds.8 mph89%29.80 "HgN/A
7:00 AM79 °FBroken clouds.3 mph84%29.80 "HgN/A
6:30 AM77 °FBroken clouds.6 mph89%29.77 "HgN/A
6:00 AM77 °FBroken clouds.No wind89%29.77 "HgN/A
Weather by CustomWeather, © 2016

See weather overviewHow to use our weather pages